This demonstration page uses our WeatherBlox Daily Observations layout. Learn more.

Left ArrowRight Arrow

Hourly Observations for April 3, 2021

Temp ( °F °C ) Dew Point ( °F °C ) Humidity (%) Winds ( mph kmh ) Pressure ( in mb ) Visibility ( mi km ) Precip ( " mm )
12:53 am 00:53 Clear 39 3.9 24 -4.4 55 55 Calm 30.39 1029 10 16 0.00 0.00
1:53 am 01:53 Clear 35 1.7 28 -2.2 76 76 Calm 30.40 1029 10 16 0.00 0.00
2:53 am 02:53 Clear 35 1.7 28 -2.2 76 76 Calm 30.39 1029 10 16 0.00 0.00
3:53 am 03:53 Clear 32 0 28 -2.2 85 85 Calm 30.40 1029 10 16 0.00 0.00
4:53 am 04:53 Clear 31 -0.6 28 -2.2 89 89 Calm 30.40 1030 10 16 0.00 0.00
5:53 am 05:53 Clear 30 -1.1 27 -2.8 88 88 Calm 30.42 1030 10 16 0.00 0.00
6:53 am 06:53 Clear 30 -1.1 27 -2.8 88 88 Calm 30.45 1031 10 16 0.00 0.00
7:53 am 07:53 Sunny 30 -1.1 28 -2.2 92 92 Calm 30.46 1032 10 16 0.00 0.00
8:53 am 08:53 Sunny 36 2.2 32 0 86 86 Calm 30.47 1032 10 16 0.00 0.00
9:53 am 09:53 Sunny 45 7.2 29 -1.7 54 54 VRB 3 6 30.48 1032 10 16 0.00 0.00
10:53 am 10:53 Sunny 51 10.6 26 -3.3 38 38 Calm 30.48 1032 10 16 0.00 0.00
11:53 am 11:53 Sunny 54 12.2 24 -4.4 31 31 VRB 3 6 30.48 1032 10 16 0.00 0.00
12:53 pm 12:53 Sunny 57 13.9 24 -4.4 28 28 Calm 30.45 1031 10 16 0.00 0.00
1:53 pm 13:53 Sunny 58 14.4 22 -5.6 25 25 VRB 5 7 30.42 1030 10 16 0.00 0.00
2:53 pm 14:53 Sunny 60 15.6 21 -6.1 22 22 SSE 7 11 30.40 1029 10 16 0.00 0.00
3:53 pm 15:53 Sunny 60 15.6 20 -6.7 21 21 SW 8 13 30.39 1029 10 16 0.00 0.00
4:53 pm 16:53 Sunny 62 16.7 16 -8.9 17 17 VRB 5 7 30.36 1028 10 16 0.00 0.00
5:53 pm 17:53 Sunny 63 17.2 19 -7.2 18 18 NE 3 6 30.35 1028 10 16 0.00 0.00
6:53 pm 18:53 Sunny 63 17.2 17 -8.3 17 17 Calm 30.34 1028 10 16 0.00 0.00
7:53 pm 19:53 Sunny 59 15 24 -4.4 26 26 Calm 30.34 1027 10 16 0.00 0.00
8:53 pm 20:53 Clear 51 10.6 28 -2.2 41 41 Calm 30.35 1028 10 16 0.00 0.00
9:53 pm 21:53 Clear 49 9.4 29 -1.7 46 46 Calm 30.36 1028 10 16 0.00 0.00
10:53 pm 22:53 Clear 45 7.2 32 0 61 61 Calm 30.37 1029 10 16 0.00 0.00
11:53 pm 23:53 Clear 46 7.8 32 0 58 58 Calm 30.37 1029 10 16 0.00 0.00

Powered by AerisWeather